KB1PVH-13 Sutton MA US current weather conditions

sailwx.info

Wind from 250 at 1 knots gusting 6

Air temperature 22.2° C
Dewpoint 19.9° C

Last reported at 2020-Aug-10 04:05 UTC.
Time now 2020-Aug-10 04:47 UTC

Location: N 42°10' W 071°46'.
View on Google Maps.

See reports from other nearby stations

  
Tides and Currents Weather Stations Pressure Air Temp Water Temp Dewpoint Dewpoint Depression Visibility Wind Speed Wind Dir Waves Ship Positions
date/time (UTC)wind fromknots sea level pressurealtimeterstation pressurevisibilityair tempwater tempwave heightnotes
2020-Aug-10 04:05 250 1 gusting 6 22.2
2020-Aug-10 03:55 246 2 gusting 7 22.2
2020-Aug-10 03:45 251 2 gusting 6 22.2
2020-Aug-10 03:35 238 1 gusting 8 22.2
2020-Aug-10 03:25 258 2 gusting 6 22.8
2020-Aug-10 03:15 255 1 gusting 6 22.8
2020-Aug-10 03:05 234 1 gusting 6 22.8
2020-Aug-10 02:55 235 2 gusting 7 22.8
2020-Aug-10 02:45 236 1 gusting 12 23.3
2020-Aug-10 02:35 228 2 gusting 7 23.3
2020-Aug-10 02:25 215 3 gusting 7 23.3
2020-Aug-10 02:15 236 2 gusting 8 23.3
2020-Aug-10 02:05 223 3 gusting 8 23.9
2020-Aug-10 01:55 229 2 gusting 6 23.9
2020-Aug-10 01:45 238 2 gusting 7 23.9
2020-Aug-10 01:35 214 1 gusting 6 23.9
2020-Aug-10 01:25 206 0 gusting 6 24.4
2020-Aug-10 01:15 224 2 gusting 6 24.4
2020-Aug-10 01:05 219 2 gusting 7 24.4
2020-Aug-10 00:55 212 2 gusting 7 24.4
2020-Aug-10 00:45 212 1 gusting 5 25.0
2020-Aug-10 00:35 214 0 gusting 5 25.0
2020-Aug-10 00:25 213 1 gusting 6 25.0
2020-Aug-10 00:15 223 1 gusting 4 25.6
2020-Aug-10 00:05 226 1 gusting 6 25.6
2020-Aug-09 23:55 213 2 gusting 8 25.6
2020-Aug-09 23:45 219 1 gusting 5 25.6
2020-Aug-09 23:35 242 1 gusting 6 26.1
2020-Aug-09 23:25 198 2 gusting 6 26.1
2020-Aug-09 23:15 210 1 gusting 7 26.7
2020-Aug-09 23:05 202 3 gusting 7 27.2
2020-Aug-09 22:55 202 2 gusting 9 27.8
2020-Aug-09 22:45 190 2 gusting 7 27.8
2020-Aug-09 22:35 211 1 gusting 9 27.8
2020-Aug-09 22:25 187 1 gusting 9 27.8
2020-Aug-09 22:15 213 3 gusting 9 27.8
2020-Aug-09 22:05 238 3 gusting 10 28.9
2020-Aug-09 21:55 234 2 gusting 7 29.4
2020-Aug-09 21:45 232 3 gusting 8 29.4
2020-Aug-09 21:35 242 2 gusting 7 29.4
2020-Aug-09 21:25 217 2 gusting 6 30.0
2020-Aug-09 21:15 265 2 gusting 6 30.0
2020-Aug-09 21:05 243 3 gusting 8 29.4
2020-Aug-09 20:55 238 3 gusting 8 30.0
2020-Aug-09 20:45 249 3 gusting 9 30.0
2020-Aug-09 20:35 236 1 gusting 7 30.0
2020-Aug-09 20:25 243 2 gusting 9 30.0
2020-Aug-09 20:15 207 2 gusting 7 30.6
2020-Aug-09 20:05 271 1 gusting 6 30.0
2020-Aug-09 19:55 229 2 gusting 8 30.0
2020-Aug-09 19:45 221 2 gusting 7 30.0
2020-Aug-09 19:35 242 1 gusting 6 29.4
2020-Aug-09 19:25 234 3 gusting 9 29.4
2020-Aug-09 19:15 226 2 gusting 6 29.4
2020-Aug-09 19:05 219 1 gusting 7 29.4
2020-Aug-09 18:55 248 2 gusting 7 29.4
2020-Aug-09 18:45 223 1 gusting 6 29.4
2020-Aug-09 18:35 206 3 gusting 11 29.4
2020-Aug-09 18:25 164 2 gusting 6 30.0
2020-Aug-09 18:15 212 3 gusting 9 30.0
2020-Aug-09 18:05 189 2 gusting 8 29.4
2020-Aug-09 17:55 289 0 gusting 6 28.3
2020-Aug-09 17:45 220 28.3
2020-Aug-09 17:35 237 0 gusting 3 28.3
2020-Aug-09 17:25 262 0 gusting 5 28.3
2020-Aug-09 17:15 257 1 gusting 4 28.3
2020-Aug-09 17:05 263 0 gusting 4 27.8
2020-Aug-09 16:55 283 0 gusting 4 27.8
2020-Aug-09 16:45 190 1 gusting 6 28.3
2020-Aug-09 16:35 257 3 gusting 8 27.8
2020-Aug-09 16:25 214 2 gusting 6 28.3
2020-Aug-09 16:15 248 2 gusting 6 27.8
2020-Aug-09 16:05 274 3 gusting 8 27.8
2020-Aug-09 15:55 246 2 gusting 6 28.3
2020-Aug-09 15:45 255 1 gusting 9 28.3
2020-Aug-09 15:35 175 0 gusting 6 28.3
2020-Aug-09 15:25 264 0 gusting 6 28.3
2020-Aug-09 15:15 264 2 gusting 6 27.8
2020-Aug-09 15:05 250 0 gusting 6 27.2
2020-Aug-09 14:55 272 1 gusting 5 26.7
2020-Aug-09 14:45 263 2 gusting 5 26.7
2020-Aug-09 14:35 197 0 gusting 6 26.1
2020-Aug-09 14:25 286 1 gusting 6 25.6
2020-Aug-09 14:15 293 0 gusting 3 25.0
2020-Aug-09 14:05 234 0 gusting 3 24.4
2020-Aug-09 13:55 238 1 gusting 6 23.9
2020-Aug-09 13:45 250 1 gusting 4 23.9
2020-Aug-09 13:35 264 0 gusting 4 23.9
2020-Aug-09 13:25 242 1 gusting 5 22.8
2020-Aug-09 13:15 260 2 gusting 7 23.3
2020-Aug-09 13:05 269 0 gusting 4 22.8
2020-Aug-09 12:55 254 1 gusting 6 22.2
2020-Aug-09 12:45 266 0 gusting 6 22.2
2020-Aug-09 12:35 277 2 gusting 6 21.7
2020-Aug-09 12:25 287 0 gusting 3 21.1
2020-Aug-09 12:15 272 0 gusting 4 21.1
2020-Aug-09 12:05 267 1 gusting 6 20.6
2020-Aug-09 11:55 265 1 gusting 6 20.6
2020-Aug-09 11:45 254 0 gusting 5 20.6
2020-Aug-09 11:35 260 1 gusting 4 20.6
2020-Aug-09 11:25 257 1 gusting 6 20.0
2020-Aug-09 11:15 255 2 gusting 8 20.0
2020-Aug-09 11:05 246 1 gusting 6 20.0
2020-Aug-09 10:55 253 19.4
2020-Aug-09 10:45 252 1 gusting 4 19.4
2020-Aug-09 10:35 252 1 gusting 4 19.4
2020-Aug-09 10:25 251 1 gusting 4 19.4
2020-Aug-09 10:15 241 1 gusting 6 19.4
2020-Aug-09 10:05 242 1 gusting 6 19.4
2020-Aug-09 09:55 240 1 gusting 6 19.4
2020-Aug-09 09:45 256 1 gusting 6 19.4
2020-Aug-09 09:35 254 2 gusting 6 19.4
2020-Aug-09 09:25 250 1 gusting 6 19.4
2020-Aug-09 09:15 240 0 gusting 5 19.4
2020-Aug-09 09:05 254 2 gusting 7 19.4
2020-Aug-09 08:55 242 1 gusting 6 19.4
2020-Aug-09 08:45 239 1 gusting 5 19.4
2020-Aug-09 08:35 237 3 gusting 8 19.4
2020-Aug-09 08:25 246 0 gusting 6 19.4
2020-Aug-09 08:15 217 0 gusting 5 19.4
2020-Aug-09 08:05 226 1 gusting 5 19.4
2020-Aug-09 07:55 255 0 gusting 5 19.4
2020-Aug-09 07:45 240 1 gusting 5 19.4
2020-Aug-09 07:35 231 0 gusting 3 19.4
2020-Aug-09 07:25 247 0 gusting 4 19.4
2020-Aug-09 07:15 255 0 gusting 5 19.4
2020-Aug-09 07:05 240 1 gusting 6 19.4
2020-Aug-09 06:55 262 1 gusting 5 19.4
2020-Aug-09 06:45 261 0 gusting 5 19.4
2020-Aug-09 06:35 239 0 gusting 5 19.4
2020-Aug-09 06:25 260 1 gusting 6 19.4
2020-Aug-09 06:15 287 0 gusting 5 19.4
2020-Aug-09 06:05 286 0 gusting 5 19.4
2020-Aug-09 05:55 243 0 gusting 3 19.4
2020-Aug-09 05:45 243 0 gusting 4 20.0
2020-Aug-09 05:35 241 1 gusting 5 20.0
2020-Aug-09 05:25 237 0 gusting 4 20.0
2020-Aug-09 05:15 255 0 gusting 3 20.0
2020-Aug-09 05:05 237 0 gusting 5 20.0
2020-Aug-09 04:55 256 0 gusting 5 20.0
2020-Aug-09 04:45 234 0 gusting 6 20.0
2020-Aug-09 04:35 257 0 gusting 6 20.0
2020-Aug-09 04:26 231 0 gusting 3 20.0
2020-Aug-09 04:15 234 0 gusting 5 20.0
2020-Aug-09 04:05 214 0 gusting 3 20.0
2020-Aug-09 03:55 187 20.0
2020-Aug-09 03:45 229 0 gusting 5 20.6
2020-Aug-09 03:35 236 1 gusting 7 20.6
2020-Aug-09 03:25 252 0 gusting 6 20.6
2020-Aug-09 03:15 239 0 gusting 3 20.6
2020-Aug-09 03:05 244 0 gusting 6 20.6
2020-Aug-09 02:55 244 20.6
2020-Aug-09 02:45 230 21.1
2020-Aug-09 02:35 244 21.1
2020-Aug-09 02:25 216 21.1
2020-Aug-09 02:15 212 0 gusting 4 21.7
2020-Aug-09 02:05 206 0 gusting 3 21.7
2020-Aug-09 01:55 225 0 gusting 5 21.7
2020-Aug-09 01:45 196 0 gusting 5 21.7
2020-Aug-09 01:35 175 22.2
2020-Aug-09 01:25 222 22.2
2020-Aug-09 01:15 231 22.8
2020-Aug-09 01:05 205 0 gusting 5 22.8
2020-Aug-09 00:55 194 22.8
2020-Aug-09 00:45 207 1 gusting 6 22.8
2020-Aug-09 00:35 183 0 gusting 5 23.3
2020-Aug-09 00:25 221 0 gusting 5 23.3
2020-Aug-09 00:15 152 23.9
2020-Aug-09 00:05 150 23.9
2020-Aug-08 23:55 136 23.9
2020-Aug-08 23:45 25.0
2020-Aug-08 23:35 25.6
2020-Aug-08 23:25 26.7
2020-Aug-08 23:15 27.2
2020-Aug-08 23:05 26.7
2020-Aug-08 22:55 27.2
2020-Aug-08 22:45 28.3
2020-Aug-08 22:35 27.8
2020-Aug-08 22:25 27.2
2020-Aug-08 22:15 27.2
2020-Aug-08 22:05 084 27.2
2020-Aug-08 21:55 084 27.8
2020-Aug-08 21:45 092 0 gusting 3 28.9
2020-Aug-08 21:35 112 29.4
2020-Aug-08 21:25 165 29.4
2020-Aug-08 21:15 258 0 gusting 3 28.9
2020-Aug-08 21:05 289 0 gusting 4 28.9
2020-Aug-08 20:55 225 0 gusting 3 28.9
2020-Aug-08 20:45 191 0 gusting 4 29.4
2020-Aug-08 20:35 272 29.4
2020-Aug-08 20:25 301 30.6
2020-Aug-08 20:15 262 29.4
2020-Aug-08 20:05 167 28.9
2020-Aug-08 19:55 272 28.3
2020-Aug-08 19:45 235 28.3
2020-Aug-08 19:35 231 28.9
2020-Aug-08 19:25 303 29.4
2020-Aug-08 19:15 293 28.3
2020-Aug-08 19:05 290 28.9
2020-Aug-08 18:55 279 28.3
2020-Aug-08 18:45 280 0 gusting 3 28.9
2020-Aug-08 18:35 282 28.3
2020-Aug-08 18:25 136 0 gusting 3 27.8
2020-Aug-08 18:15 111 27.8
2020-Aug-08 18:05 075 27.2
2020-Aug-08 17:55 082 0 gusting 4 27.8
2020-Aug-08 17:45 105 27.2
2020-Aug-08 17:35 295 1 gusting 3 27.8
2020-Aug-08 17:25 035 27.8
2020-Aug-08 17:15 337 27.2
2020-Aug-08 17:05 087 1 gusting 6 26.7
2020-Aug-08 16:55 292 0 gusting 2 26.1
2020-Aug-08 16:45 078 2 gusting 5 25.6
2020-Aug-08 16:35 113 0 gusting 4 26.1
2020-Aug-08 16:25 051 26.7
2020-Aug-08 16:15 048 26.1
2020-Aug-08 16:05 057 0 gusting 3 25.6
2020-Aug-08 15:55 045 0 gusting 4 25.6
2020-Aug-08 15:45 117 0 gusting 4 25.0
2020-Aug-08 15:35 104 1 gusting 5 25.0
2020-Aug-08 15:25 086 1 gusting 5 24.4
2020-Aug-08 15:15 051 25.0
2020-Aug-08 15:05 115 23.9
2020-Aug-08 14:55 101 2 gusting 6 22.8
2020-Aug-08 14:45 079 1 gusting 5 22.8
2020-Aug-08 14:35 293 23.3
2020-Aug-08 14:25 090 0 gusting 5 22.2
2020-Aug-08 14:15 094 22.2
2020-Aug-08 14:05 044 22.2
2020-Aug-08 13:55 306 22.2
2020-Aug-08 13:45 312 21.7
2020-Aug-08 13:35 353 21.1
2020-Aug-08 13:25 093 20.6
2020-Aug-08 13:15 20.6
2020-Aug-08 13:05 20.6
2020-Aug-08 12:55 20.0
2020-Aug-08 12:45 20.0
2020-Aug-08 12:35 19.4
2020-Aug-08 12:25 19.4
2020-Aug-08 12:15 077 19.4
2020-Aug-08 12:05 115 18.9
2020-Aug-08 11:55 18.3
2020-Aug-08 11:45 18.3
2020-Aug-08 11:35 18.3
2020-Aug-08 11:25 17.8
2020-Aug-08 11:15 17.8
2020-Aug-08 11:05 17.8
2020-Aug-08 10:55 17.2
2020-Aug-08 10:45 17.2
2020-Aug-08 10:35 17.2
2020-Aug-08 10:25 16.7
2020-Aug-08 10:15 16.7
2020-Aug-08 10:05 16.7
2020-Aug-08 09:55 16.7
2020-Aug-08 09:45 17.2
2020-Aug-08 09:35 16.7
2020-Aug-08 09:25 16.7
2020-Aug-08 09:15 16.7
2020-Aug-08 09:05 16.7
2020-Aug-08 08:55 17.2
2020-Aug-08 08:45 17.2
2020-Aug-08 08:35 17.2
2020-Aug-08 08:25 17.2
2020-Aug-08 08:15 17.2
2020-Aug-08 08:05 17.2
2020-Aug-08 07:55 17.2
2020-Aug-08 07:45 17.2
2020-Aug-08 07:35 17.2
2020-Aug-08 07:25 17.2
2020-Aug-08 07:15 17.2
2020-Aug-08 07:05 17.2
2020-Aug-08 06:55 17.2
2020-Aug-08 06:45 17.2
2020-Aug-08 06:35 17.2
2020-Aug-08 06:25 17.2
2020-Aug-08 06:15 17.2
2020-Aug-08 06:05 17.2
2020-Aug-08 05:55 17.2
2020-Aug-08 05:45 17.2
2020-Aug-08 05:35 17.2
2020-Aug-08 05:25 17.2
2020-Aug-08 05:15 17.2
2020-Aug-08 05:06 17.2
2020-Aug-08 04:55 17.2
2020-Aug-08 04:45 17.2
2020-Aug-08 04:35 17.8
2020-Aug-08 04:25 17.8
2020-Aug-08 04:15 17.8
2020-Aug-08 04:05 17.8